OH2FDL-2 Weather Reports


Display with metric or nautical units.
time (UTC)temp
F
wind
direction
speed
MPH
gust
MPH
rain 1hr
in
rain 24hr
in
rain mn
in
humidity
%
barometer
mb
20260903164517 58 0.0 0.0 0.00 0.00 0.00 10 1001.1
20260903163018 59 0.0 0.0 0.00 0.00 0.00 10 1001.1
20260903161522 60 0.0 0.0 0.00 0.00 0.00 10 1001.2
20260903160017 60 0.0 0.0 0.00 0.00 0.00 10 1001.2
20260903154518 61 0.0 0.0 0.00 0.00 0.00 10 1001.1
20260903153017 61 0.0 0.0 0.00 0.00 0.00 10 1001.0
20260903151517 62 0.0 0.0 0.00 0.00 0.00 10 1001.1
20260903150017 64 0.0 0.0 0.00 0.00 0.00 10 1001.1
20260903144517 65 0.0 0.0 0.00 0.00 0.00 10 1001.0
20260903141518 65 0.0 0.0 0.00 0.00 0.00 99 1001.1
20260903140018 65 0.0 0.0 0.00 0.00 0.00 98 1001.1
20260903134518 66 0.0 0.0 0.00 0.00 0.00 95 1001.1
20260903133018 66 0.0 0.0 0.00 0.00 0.00 95 1001.1
20260903131517 67 0.0 0.0 0.00 0.00 0.00 96 1001.1
20260903130023 67 0.0 0.0 0.00 0.00 0.00 98 1001.1
20260903124518 67 0.0 0.0 0.00 0.00 0.00 99 1001.2
20260903123019 67 0.0 0.0 0.00 0.00 0.00 10 1001.1
20260903120018 65 0.0 0.0 0.00 0.00 0.00 10 1001.2
20260903114518 65 0.0 0.0 0.00 0.00 0.00 10 1001.1
20260903113018 64 0.0 0.0 0.00 0.00 0.00 10 1001.1
20260903111522 64 0.0 0.0 0.00 0.00 0.00 10 1001.2
20260903110018 63 0.0 0.0 0.00 0.00 0.00 10 1001.3
20260903104518 63 0.0 0.0 0.00 0.00 0.00 10 1001.5
20260903103018 63 0.0 0.0 0.00 0.00 0.00 10 1001.5
20260903101518 63 0.0 0.0 0.00 0.00 0.00 10 1001.5
20260903100018 63 0.0 0.0 0.00 0.00 0.00 10 1001.6
20260903094523 63 0.0 0.0 0.00 0.00 0.00 10 1001.7
20260903091518 63 0.0 0.0 0.00 0.00 0.00 10 1001.7
20260903090018 62 0.0 0.0 0.00 0.00 0.00 10 1001.9
20260903083020 62 0.0 0.0 0.00 0.00 0.00 10 1001.9
20260903081518 61 0.0 0.0 0.00 0.00 0.00 10 1002.0
20260903080022 61 0.0 0.0 0.00 0.00 0.00 10 1002.1
20260903071517 57 0.0 0.0 0.00 0.00 0.00 10 1002.1
20260903070018 56 0.0 0.0 0.00 0.00 0.00 10 1002.1
20260903064517 55 0.0 0.0 0.00 0.00 0.00 10 1002.1
20260903061524 54 0.0 0.0 0.00 0.00 0.00 10 1002.2
20260903054516 54 0.0 0.0 0.00 0.00 0.00 10 1002.3
20260903051518 53 0.0 0.0 0.00 0.00 0.00 10 1002.2
20260903050017 54 0.0 0.0 0.00 0.00 0.00 10 1002.2
20260903043018 54 0.0 0.0 0.00 0.00 0.00 10 1002.3
20260903040017 54 0.0 0.0 0.00 0.00 0.00 10 1002.2
20260903034517 54 0.0 0.0 0.00 0.00 0.00 10 1002.3
20260903033019 53 0.0 0.0 0.00 0.00 0.00 10 1002.3
20260903031518 53 0.0 0.0 0.00 0.00 0.00 10 1002.3
20260903030023 53 0.0 0.0 0.00 0.00 0.00 10 1002.2
20260903023018 52 0.0 0.0 0.00 0.00 0.00 10 1002.3
20260903021518 50 0.0 0.0 0.00 0.00 0.00 10 1002.3
20260903020018 50 0.0 0.0 0.00 0.00 0.00 10 1002.4
20260903014518 49 0.0 0.0 0.00 0.00 0.00 10 1002.5
20260903013017 50 0.0 0.0 0.00 0.00 0.00 10 1002.5
20260903011518 50 0.0 0.0 0.00 0.00 0.00 10 1002.6
20260903010018 50 0.0 0.0 0.00 0.00 0.00 10 1002.7
20260903004517 50 0.0 0.0 0.00 0.00 0.00 10 1002.8
20260903003018 50 0.0 0.0 0.00 0.00 0.00 10 1003.0
20260903001517 51 0.0 0.0 0.00 0.00 0.00 10 1003.0
20260903000018 51 0.0 0.0 0.00 0.00 0.00 10 1003.1
20260902234522 51 0.0 0.0 0.00 0.00 0.00 10 1003.3
20260902233018 52 0.0 0.0 0.00 0.00 0.00 10 1003.4
20260902231518 51 0.0 0.0 0.00 0.00 0.00 10 1003.4
20260902230018 51 0.0 0.0 0.00 0.00 0.00 10 1003.4
20260902224517 52 0.0 0.0 0.00 0.00 0.00 10 1003.5
20260902223018 52 0.0 0.0 0.00 0.00 0.00 10 1003.6
20260902221518 52 0.0 0.0 0.00 0.00 0.00 10 1003.6
20260902220023 52 0.0 0.0 0.00 0.00 0.00 10 1003.7
20260902214518 53 0.0 0.0 0.00 0.00 0.00 10 1003.8
20260902213019 53 0.0 0.0 0.00 0.00 0.00 10 1003.9
20260902211518 54 0.0 0.0 0.00 0.00 0.00 10 1004.0
20260902210017 54 0.0 0.0 0.00 0.00 0.00 10 1004.0
20260902204517 55 0.0 0.0 0.00 0.00 0.00 10 1004.1
20260902203017 56 0.0 0.0 0.00 0.00 0.00 10 1004.1
20260902201522 56 0.0 0.0 0.00 0.00 0.00 10 1004.1
20260902200018 56 0.0 0.0 0.00 0.00 0.00 10 1004.1
20260902194518 56 0.0 0.0 0.00 0.00 0.00 10 1004.1
20260902191518 56 0.0 0.0 0.00 0.00 0.00 10 1004.0
20260902184517 56 0.0 0.0 0.00 0.00 0.00 10 1004.1
20260902183018 56 0.0 0.0 0.00 0.00 0.00 10 1004.1
20260902181517 57 0.0 0.0 0.00 0.00 0.00 10 1004.2
20260902180018 57 0.0 0.0 0.00 0.00 0.00 10 1004.2
20260902174518 57 0.0 0.0 0.00 0.00 0.00 10 1004.1
20260902173018 58 0.0 0.0 0.00 0.00 0.00 10 1004.1
20260902170023 60 0.0 0.0 0.00 0.00 0.00 10 1003.9